Regional Weather Roundup
Issued by NWS Green Bay, WI

Home | Current Version | Previous Version | Graphics & Text | Print | Product List | Glossary Off
Versions: 1 2 3 4 5 6 7 8 9 10 11 12 13 14 15 16 17 18 19 20 21 22 23 24 25 26 27 28 29 30 31 32 33 34 35 36 37 38 39 40 41 42 43 44 45 46 47 48 49 50

000
ASUS43 KGRB 251511
RWRGRB

NORTH-CENTRAL AND NORTHEAST WISCONSIN REGIONAL WEATHER ROUNDUP
NATIONAL WEATHER SERVICE GREEN BAY WI
1000 AM CDT WED APR 25 2018

WIZ005-009-010>012-018-019-251600-
NORTH CENTRAL WISCONSIN

CITY           SKY/WX    TMP DP  RH WIND       PRES   REMARKS
IRONWOOD       FAIR      37  23  56 N6        30.22F
MANITOWISH WTR FAIR      35  26  69 N3        30.18F
ARBOR VITAE    FAIR      39  30  70 N10       30.17F
EAGLE RIVER    FAIR      37  26  65 NW8       30.17S
LAND O LAKES   FAIR      36  26  65 NE8       30.19S
RHINELANDER    FAIR      37  28  70 N9        30.18F
PHILLIPS       FAIR      38  27  65 NE8       30.19F
ANTIGO         FAIR      37  29  73 N10       30.17F
TOMAHAWK       FAIR      38  27  65 N8        30.18F
MERRILL        FAIR      40  29  65 N8        30.19F
$$

WIZ013-073-251600-
NORTHEAST WISCONSIN

CITY           SKY/WX    TMP DP  RH WIND       PRES   REMARKS
IRON MOUNTAIN  FAIR      39  28  64 NW14      30.14F
MARINETTE      FAIR      42  28  57 N14       30.16F
OCONTO         FAIR      42  28  57 N12G18    30.16F
$$

WIZ017-030-035>037-045-251600-
CENTRAL WISCONSIN

CITY           SKY/WX    TMP DP  RH WIND       PRES   REMARKS
MEDFORD        FAIR      38  28  66 N8        30.18S
WAUSAU         FAIR      40  27  59 NE8       30.16F
MOSINEE        SUNNY     39  30  70 NE13      30.19F
MARSHFIELD     FAIR      43  30  60 VRB5      30.17F
WISC RAPIDS    FAIR      45  28  51 VRB7      30.19F
STEVENS POINT  FAIR      41  28  60 NE3G16    30.18S
WAUPACA        FAIR      45  29  53 N7        30.18F
SHAWANO        FAIR      44  30  59 NE6       30.17F
CLINTONVILLE   FAIR      43  27  53 N9        30.17F
WAUTOMA        FAIR      45  28  51 N6        30.18S
$$

WIZ038-039-048-051-251600-
FOX VALLEY

CITY           SKY/WX    TMP DP  RH WIND       PRES   REMARKS
NWS GREEN BAY  FAIR      44  30  57 N14       30.16F
APPLETON       MOSUNNY   43  27  52 N14       30.15F
OSHKOSH        FAIR      44  32  62 NE9       30.16F
FOND DU LAC    FAIR      43  31  62 N13       30.16F
$$

WIZ022-050-052-251600-
EAST CENTRAL WISCONSIN

CITY           SKY/WX    TMP DP  RH WIND       PRES   REMARKS
EPHRAIM        FAIR      38  28  67 N16       30.14S
WASHINGTON ISL NOT AVBL
STURGEON BAY   FAIR      39  29  67 N17G25    30.16F
MANITOWOC      FAIR      43  31  62 N14       30.14F
SHEBOYGAN      FAIR      46  33  60 N15       30.13F
$$

LMZ563-521-522-541>543-251600-
LAKESHORE

STATION/POSITION TIME  TEMP    WIND        PRES    VSBY  WAVE
                       AIR SEA DIR/SP/G                  HT/PER
                 (UTC) (F)     (DEG/KT/KT) (MB)    (MI)  (FT/S)
SHEBOYGAN LKSHOR 1500   40      10/ 13/ 13 1020.9F
KEWAUNEE LKSHORE 1448   42     360/  8/ 15 1020.1F
NORTHPORT PIER   1440   36                 1021.0S
SISTER BAY LKSHO 1457   39     350/ 12/ 14   N/A
MENOMINEE LKSHOR 1448   37     360/ 12/ 13 1021.0F
$$




USA.gov is the U.S. government's official web portal to all federal, state and local government web resources and services.